Regional Weather Roundup
Issued by NWS

Home | Current Version | Previous Version | Text Only | Print | Product List | Glossary On
Versions: 1 2 3 4 5 6 7 8 9 10 11 12 13 14 15 16 17 18 19 20 21 22 23 24 25 26 27 28 29 30 31 32 33 34 35 36 37 38 39 40 41 42 43 44 45 46 47 48 49 50
000
ASUS46 KSTO 201315
RWRCA

NORTHERN AND CENTRAL CA REGIONAL WEATHER ROUNDUP
NATIONAL WEATHER SERVICE SACRAMENTO CA
500 AM PST MON NOV 20 2017

NOTE: FAIR INDICATES FEW OR NO CLOUDS BELOW 12,000 FEET WITH NO
SIGNIFICANT WEATHER AND/OR OBSTRUCTIONS TO VISIBILITY.

CAZ001-003-201400-
NORTHWEST AREA

CITY           SKY/WX    TMP DP  RH WIND       PRES   REMARKS
CRESCENT CITY  LGT RAIN  55  55 100 S23G31    29.84R FOG
UKIAH          CLOUDY    49  47  93 SE5       30.03S
$$

CAZ006-505>513-201400-
BAY AREA

CITY           SKY/WX    TMP DP  RH WIND       PRES   REMARKS
SANTA ROSA     CLOUDY    50  50 100 N3        30.04F FOG
SAN RAFAEL     N/A       53  MM  MM MISG
NAPA           CLOUDY    54  48  80 N6        30.05F
CONCORD        CLOUDY    56  49  77 SE3       30.05F
OAKLAND CITY   N/A      MM  MM  MM MISG
OAKLAND        CLOUDY    55  51  86 CALM      30.05F
SAN FRAN CITY  N/A       56  MM  77 MISG
SAN FRAN ARPT  CLOUDY    57  49  74 CALM      30.05F
LIVERMORE      CLOUDY    54  48  80 CALM      30.05F
HAYWARD        CLOUDY    56  45  66 E3        30.05F
REDWOOD CITY   N/A       54  MM  83 MISG
MOFFETT ARPT   CLOUDY    55  49  80 CALM      30.05F
SAN JOSE ARPT  CLOUDY    56  48  74 E3        30.05F
$$
CAZ034-037-514>518-201400-
CENTRAL COAST

CITY           SKY/WX    TMP DP  RH WIND       PRES   REMARKS
WATSONVILLE    MOCLDY    52  52 100 NW3       30.07S
SALINAS        MOCLDY    53  45  74 E9        30.06F
MONTEREY       MOCLDY    53  46  77 CALM      30.06F
SAN LUIS OBISP CLEAR     56  45  66 NW13      30.03F
SANTA MARIA    CLEAR     46  43  89 S5        30.04R
$$
CAZ015-016-201400-
NORTHERN SACRAMENTO VALLEY

CITY           SKY/WX    TMP DP  RH WIND       PRES   REMARKS
REDDING        CLOUDY    48  47  96 NW3       30.05F
RED BLUFF      CLOUDY    49  46  90 W5        30.07S
OROVILLE       LGT RAIN  54  51  90 E6        30.07F
$$
CAZ016>018-201400-
SOUTHERN SACRAMENTO VALLEY

CITY           SKY/WX    TMP DP  RH WIND       PRES   REMARKS
AUBURN         CLOUDY    54  43  66 E8        30.08S
BEALE AFB      CLOUDY    54  49  85 SE5       30.04F
LINCOLN        CLOUDY    54  46  76 CALM      30.06F
MARYSVILLE     CLOUDY    55  49  80 CALM      30.06F
SAC INTL ARPT  CLOUDY    53  51  93 E6        30.05F
MATHER AIRPORT CLOUDY    55  48  76 E6        30.06
DOWNTOWN SAC   N/A       55  MM  MM MISG
SAC EXEC ARPT  CLOUDY    54  50  86 E6        30.06F
VACAVILLE      CLOUDY    56  46  69 SE5       30.06F
TRAVIS AFB     CLOUDY    54  47  79 CALM      30.04S
$$
CAZ019>021-201400-
SAN JOAQUIN VALLEY

CITY           SKY/WX    TMP DP  RH WIND       PRES   REMARKS
STOCKTON       CLOUDY    54  50  86 E8        30.06F
MODESTO        MOCLDY    53  49  86 E7        30.07S
MERCED         CLOUDY    52  47  83 MISG      30.09R HAZE
LEMOORE        PTCLDY   N/A N/A N/A CALM      30.09S
FRESNO         CLOUDY    51  46  83 NE5       30.10S FOG
HANFORD        CLOUDY    47  45  93 CALM      30.10S FOG
PORTERVILLE    PTCLDY    45  42  89 E5        30.10R FOG
BAKERSFIELD    CLEAR     47  40  76 NE6       30.06F
$$
CAZ011-012-071-201400-
NORTHERN MOUNTAINS

CITY           SKY/WX    TMP DP  RH WIND       PRES   REMARKS
YREKA          LGT RAIN  39  38  96 NE9       29.94S WCI  33
MOUNT SHASTA   RAIN      40  37  89 E5        30.02S
ALTURAS        CLOUDY    38  33  82 NW5       29.98S WCI  34
$$
CAZ011-012-071-201400-
SIERRA NEVADA MTNS

CITY           SKY/WX    TMP DP  RH WIND       PRES   REMARKS
BLUE CANYON    CLOUDY    40  34  79 SE7       30.12F
TRUCKEE        CLOUDY    39  32  75 SW12G21   30.13S WCI  32
TAHOE VLY ARPT CLOUDY    44  24  45 S10G22    30.14R
MAMMOTH LAKES  MOCLDY    42   5  21 SE5       30.16S
$$




USA.gov is the U.S. government's official web portal to all federal, state and local government web resources and services.